Location: Brighton Point
(40.6144°N, 111.7933°W)
Time: 22:34:06
(UTC+00:00)

ISS - Pass Details

Date: 16 March 2021
Orbit: 418 x 422 km, 51.6° (Epoch: 12 April)

Event Time Altitude Azimuth Distance (km) Brightness Sun altitude
Rises 02:51:52 0° 193° (SSW) 2,350 0.1 -15.4°
Reaches altitude 10° 02:54:31 10° 170° (S) 1,491 -1.2 -15.9°
Enters shadow 02:54:32 10° 170° (S) 1,486 -1.2 -15.9°
